Location: Hopville
(44.8032°N, 123.1329°W)
Time: 16:25:13
(UTC+00:00)

SL-16 R/B - Pass Details

Date: 24 January 2021
Orbit: 839 x 850 km, 71.0° (Epoch: 28 February)

Event Time Altitude Azimuth Distance (km) Brightness Sun altitude
Rises 14:21:17 0° 209° (SSW) 3,381 5.2 -13.9°
Reaches altitude 10° 14:23:43 10° 211° (SSW) 2,451 4.4 -13.5°
Maximum altitude 14:29:21 74° 297° (WNW) 877 2.1 -12.5°
Drops below altitude 10° 14:35:02 10° 23° (NNE) 2,473 4.7 -11.5°
Sets 14:37:30 0° 25° (NNE) 3,414 5.5 -11.1°
